AirNav   Everest Fuels
 
 1159 users online  

28CA Dos Palos Airport
Dos Palos, California, USA

GOING TO DOS PALOS?


FAA INFORMATION EFFECTIVE 15 JULY 2021

Location

FAA Identifier: 28CA
Lat/Long: 36-57-44.8100N 120-37-48.6580W
36-57.746833N 120-37.810967W
36.9624472,-120.6301828
(estimated)
Elevation: 118 ft. / 36.0 m (surveyed)
Variation: 15E (1985)
From city: 2 miles S of DOS PALOS, CA
Time zone: UTC -7 (UTC -8 during Standard Time)
Zip code: 93620

Airport Operations

Airport use: Private use. Permission required prior to landing
Activation date: 12/1945
Control tower: no
ARTCC: OAKLAND CENTER
FSS: RANCHO MURIETA FLIGHT SERVICE STATION
Attendance: MON-FRI 0800-1700, ALL SAT 0800-1200
Pattern altitude: 918 ft. MSL
Wind indicator: yes
Segmented circle: no

Airport Communications

WX AWOS-3 at LSN (13 nm NW): 118.675 (209-827-7084)

Nearby radio navigation aids

VOR radial/distance  VOR name  Freq  Var
PXNr010/16.4PANOCHE VORTAC112.6016E
HYPr201/18.9EL NIDO VOR/DME114.2015E

Airport Services

Airframe service: NONE
Powerplant service: NONE
Bottled oxygen: NONE
Bulk oxygen: NONE

Runway Information

Runway 13/31

Dimensions: 2210 x 60 ft. / 674 x 18 m
Surface: dirt, in good condition
RUNWAY 13  RUNWAY 31
Traffic pattern: leftleft
Markings: nonenone
Runway end identifier lights: nono
Obstructions: 15 ft. road, 300 ft. from runway, 20:1 slope to clear15 ft. road, 80 ft. from runway, 4:1 slope to clear

Airport Ownership and Management from official FAA records

Ownership: Privately-owned
Owner: SPAIN AIR INC.
BOX 217
DOS PALOS, CA 93620
Phone 209-392-2120
Manager: RANDY SPAIN
BOX 217
DOS PALOS, CA 93620
Phone 209-392-2120

Airport Operational Statistics

Aircraft operations: avg 36/day *
98% local general aviation
2% transient general aviation
* for 12-month period ending 01 August 1984

Additional Remarks

RWY 13/31 UNUSABLE WHEN WET.
RWY 13/31 MARKED WITH R'S.
FOR CD CTC NORCAL APCH AT 916-361-0516.

Instrument Procedures

There are no published instrument procedures at 28CA.

Some nearby airports with instrument procedures:

F34 - Firebaugh Airport (10 nm SE)
KLSN - Los Banos Municipal Airport (13 nm NW)
KMCE - Merced Regional Airport/Macready Field (20 nm N)
KMAE - Madera Municipal Airport (25 nm E)
KMER - Castle Airport (25 nm N)
 
Loc | Ops | Rwys | IFR | FBO | Links
Com | Nav | Svcs | Stats | Notes
Area around 28CA (Dos Palos Airport)
 
Road maps at: MapQuest Bing Google
 
Aerial photo
No photo
 
Sectional chart

 
Airport distance calculator
Flying to Dos Palos Airport? Find the distance to fly.

From to 28CA

Sunrise and sunset
Times for 05-Aug-2021
 Local
(UTC-7)
 Zulu
(UTC)
Morning civil twilight05:4412:44
Sunrise06:1213:12
Sunset20:0503:05
Evening civil twilight20:3303:33

Current date and time
Zulu (UTC)  05-Aug-2021 23:11:08
Local (UTC-7)  05-Aug-2021 16:11:08
 
METAR
KMCE 
20nm N 
052253Z AUTO 29007KT 10SM CLR 33/11 A2989 RMK AO2 SLP120 T03330106
KMAE 
25nm E 
052253Z AUTO 29009G17KT 10SM CLR 36/05 A2989 RMK AO2 SLP118 T03610050
KMER 
25nm N 
052245Z 30009KT 10SM SKC 35/09 A2990
KCVH 
38nm W 
052255Z AUTO 25016KT 10SM CLR 25/13 A2998 RMK A01
TAF
KMCE 
20nm N 
051720Z 0518/0618 32010KT P6SM SKC FM060700 30005KT P6SM SKC
NOTAMs
Click for the latest NOTAMs
NOTAMs are issued by the DoD/FAA and will open in a separate window not controlled by AirNav.

 

 
 

Would you like to see your business listed on this page?

 If your business provides an interesting product or service to pilots, flight crews, aircraft, or users of the Dos Palos Airport, you should consider listing it here.  To start the listing process, click on the button below
 
Add a business
 

Other Pages about Dos Palos Airport

Update a link
 
Copyright © AirNav, LLC. All rights reserved. Privacy Policy  Contact